| time (UTC) | temp C | wind direction | speed KPH | gust KPH | rain 1hr cm | rain 24hr cm | rain mn cm | humidity % | barometer mb |
| 20260905004952 | 22 | 339 | 0.0 | 3.2 | 0.00 | 0.00 | 0.00 | 69 | 1018.1 |
| 20260905004452 | 22 | 9 | 1.6 | 6.4 | 0.00 | 0.00 | 0.00 | 69 | 1018.1 |
| 20260905003951 | 22 | 5 | 1.6 | 3.2 | 0.00 | 0.00 | 0.00 | 68 | 1018.1 |
| 20260905003452 | 22 | 19 | 1.6 | 3.2 | 0.00 | 0.00 | 0.00 | 68 | 1018.0 |
| 20260905002953 | 22 | 94 | 0.0 | 3.2 | 0.00 | 0.00 | 0.00 | 68 | 1017.9 |
| 20260905002452 | 22 | 349 | 1.6 | 6.4 | 0.00 | 0.00 | 0.00 | 68 | 1017.9 |
| 20260905001953 | 22 | 53 | 1.6 | 6.4 | 0.00 | 0.00 | 0.00 | 68 | 1017.9 |
| 20260905001452 | 22 | 123 | 3.2 | 11.3 | 0.00 | 0.00 | 0.00 | 68 | 1017.9 |
| 20260905000953 | 22 | 48 | 3.2 | 8.0 | 0.00 | 0.00 | 0.00 | 68 | 1017.9 |
| 20260905000454 | 22 | 307 | 3.2 | 14.5 | 0.00 | 0.00 | 0.00 | 68 | 1017.8 |
| 20260904235952 | 22 | 56 | 3.2 | 9.7 | 0.00 | 0.00 | 0.00 | 68 | 1017.8 |
| 20260904235452 | 22 | 22 | 8.0 | 20.9 | 0.00 | 0.00 | 0.00 | 69 | 1017.7 |
| 20260904234952 | 22 | 344 | 3.2 | 14.5 | 0.00 | 0.00 | 0.00 | 70 | 1017.6 |
| 20260904234451 | 21 | 340 | 3.2 | 8.0 | 0.00 | 0.00 | 0.00 | 70 | 1017.4 |
| 20260904233952 | 21 | 44 | 1.6 | 6.4 | 0.00 | 0.00 | 0.00 | 70 | 1017.4 |
| 20260904233453 | 21 | 34 | 1.6 | 3.2 | 0.00 | 0.00 | 0.00 | 70 | 1017.3 |
| 20260904232952 | 21 | 355 | 4.8 | 8.0 | 0.00 | 0.00 | 0.00 | 70 | 1017.2 |
| 20260904232452 | 21 | 345 | 0.0 | 11.3 | 0.00 | 0.00 | 0.00 | 70 | 1017.2 |
| 20260904231952 | 22 | 360 | 3.2 | 6.4 | 0.00 | 0.00 | 0.00 | 70 | 1017.3 |
| 20260904231451 | 22 | 34 | 1.6 | 6.4 | 0.00 | 0.00 | 0.00 | 71 | 1017.2 |
| 20260904230952 | 22 | 65 | 3.2 | 9.7 | 0.00 | 0.00 | 0.00 | 70 | 1017.1 |
| 20260904230451 | 22 | 36 | 1.6 | 8.0 | 0.00 | 0.00 | 0.00 | 71 | 1017.2 |
| 20260904225952 | 21 | 360 | 3.2 | 8.0 | 0.00 | 0.00 | 0.00 | 71 | 1017.1 |
| 20260904225451 | 21 | 42 | 3.2 | 8.0 | 0.00 | 0.00 | 0.00 | 72 | 1017.1 |
| 20260904224951 | 21 | 46 | 1.6 | 8.0 | 0.00 | 0.00 | 0.00 | 72 | 1017.1 |
| 20260904224452 | 21 | 13 | 3.2 | 12.9 | 0.00 | 0.00 | 0.00 | 73 | 1017.0 |
| 20260904223952 | 21 | 42 | 3.2 | 6.4 | 0.00 | 0.00 | 0.00 | 73 | 1016.9 |
| 20260904223452 | 21 | 101 | 1.6 | 6.4 | 0.00 | 0.00 | 0.00 | 74 | 1017.0 |
| 20260904222952 | 20 | 69 | 1.6 | 11.3 | 0.00 | 0.00 | 0.00 | 73 | 1017.0 |
| 20260904222452 | 20 | 55 | 3.2 | 4.8 | 0.00 | 0.00 | 0.00 | 74 | 1016.9 |
| 20260904221952 | 20 | 5 | 3.2 | 4.8 | 0.00 | 0.00 | 0.00 | 74 | 1016.8 |
| 20260904221452 | 20 | 9 | 6.4 | 12.9 | 0.00 | 0.00 | 0.00 | 76 | 1016.7 |
| 20260904220951 | 20 | 38 | 0.0 | 4.8 | 0.00 | 0.00 | 0.00 | 76 | 1016.6 |
| 20260904220452 | 20 | 360 | 0.0 | 3.2 | 0.00 | 0.00 | 0.00 | 76 | 1016.3 |
| 20260904215952 | 20 | 127 | 1.6 | 1.6 | 0.00 | 0.00 | 0.00 | 76 | 1016.1 |
| 20260904215453 | 20 | 127 | 0.0 | 3.2 | 0.00 | 0.00 | 0.00 | 76 | 1016.1 |
| 20260904214952 | 20 | 174 | 1.6 | 4.8 | 0.00 | 0.00 | 0.00 | 76 | 1016.1 |
| 20260904214453 | 20 | 177 | 0.0 | 3.2 | 0.00 | 0.00 | 0.00 | 75 | 1015.9 |
| 20260904213952 | 20 | 140 | 3.2 | 3.2 | 0.00 | 0.00 | 0.00 | 75 | 1015.9 |
| 20260904213452 | 20 | 138 | 1.6 | 3.2 | 0.00 | 0.00 | 0.00 | 74 | 1015.8 |
| 20260904212952 | 21 | 145 | 0.0 | 1.6 | 0.00 | 0.00 | 0.00 | 73 | 1015.8 |
| 20260904212452 | 21 | 145 | 0.0 | 1.6 | 0.00 | 0.00 | 0.00 | 73 | 1015.8 |
| 20260904211951 | 21 | 123 | 0.0 | 1.6 | 0.00 | 0.00 | 0.00 | 72 | 1015.6 |
| 20260904211451 | 21 | 128 | 0.0 | 3.2 | 0.00 | 0.00 | 0.00 | 72 | 1015.6 |
| 20260904210951 | 21 | 128 | 1.6 | 1.6 | 0.00 | 0.00 | 0.00 | 71 | 1015.6 |
| 20260904210451 | 21 | 128 | 1.6 | 1.6 | 0.00 | 0.00 | 0.00 | 71 | 1015.5 |
| 20260904205951 | 22 | 123 | 0.0 | 1.6 | 0.00 | 0.00 | 0.00 | 70 | 1015.5 |
| 20260904205452 | 22 | 129 | 1.6 | 3.2 | 0.00 | 0.00 | 0.00 | 69 | 1015.5 |
| 20260904204951 | 22 | 164 | 1.6 | 3.2 | 0.00 | 0.00 | 0.00 | 69 | 1015.5 |
| 20260904204451 | 22 | 165 | 0.0 | 3.2 | 0.00 | 0.00 | 0.00 | 69 | 1015.5 |
| 20260904203952 | 22 | 158 | 1.6 | 3.2 | 0.00 | 0.00 | 0.00 | 68 | 1015.5 |
| 20260904203452 | 22 | 210 | 0.0 | 1.6 | 0.00 | 0.00 | 0.00 | 67 | 1015.4 |
| 20260904202953 | 23 | 167 | 0.0 | 1.6 | 0.00 | 0.00 | 0.00 | 67 | 1015.4 |
| 20260904202451 | 23 | 155 | 0.0 | 1.6 | 0.00 | 0.00 | 0.00 | 66 | 1015.4 |
| 20260904201953 | 23 | 155 | 0.0 | 1.6 | 0.00 | 0.00 | 0.00 | 66 | 1015.4 |
| 20260904201453 | 23 | 155 | 0.0 | 1.6 | 0.00 | 0.00 | 0.00 | 65 | 1015.4 |
| 20260904200951 | 23 | 155 | 0.0 | 3.2 | 0.00 | 0.00 | 0.00 | 65 | 1015.3 |
| 20260904200453 | 23 | 164 | 3.2 | 6.4 | 0.00 | 0.00 | 0.00 | 64 | 1015.3 |
| 20260904195953 | 23 | 360 | 1.6 | 4.8 | 0.00 | 0.00 | 0.00 | 64 | 1015.3 |
| 20260904195453 | 23 | 16 | 1.6 | 6.4 | 0.00 | 0.00 | 0.00 | 64 | 1015.2 |
| 20260904194952 | 24 | 11 | 1.6 | 4.8 | 0.00 | 0.00 | 0.00 | 63 | 1015.1 |
| 20260904194451 | 24 | 326 | 1.6 | 3.2 | 0.00 | 0.00 | 0.00 | 62 | 1015.1 |
| 20260904193953 | 25 | 151 | 0.0 | 0.0 | 0.00 | 0.00 | 0.00 | 61 | 1015.0 |
| 20260904193451 | 25 | 151 | 0.0 | 1.6 | 0.00 | 0.00 | 0.00 | 59 | 1014.9 |
| 20260904192952 | 25 | 154 | 0.0 | 1.6 | 0.00 | 0.00 | 0.00 | 58 | 1014.8 |
| 20260904192452 | 26 | 153 | 0.0 | 0.0 | 0.00 | 0.00 | 0.00 | 57 | 1014.7 |
| 20260904191952 | 26 | 153 | 0.0 | 3.2 | 0.00 | 0.00 | 0.00 | 56 | 1014.7 |
| 20260904191452 | 26 | 174 | 0.0 | 1.6 | 0.00 | 0.00 | 0.00 | 55 | 1014.7 |
| 20260904190952 | 26 | 183 | 0.0 | 1.6 | 0.00 | 0.00 | 0.00 | 54 | 1014.6 |
| 20260904190452 | 27 | 187 | 0.0 | 3.2 | 0.00 | 0.00 | 0.00 | 53 | 1014.6 |
| 20260904185952 | 27 | 170 | 1.6 | 3.2 | 0.00 | 0.00 | 0.00 | 52 | 1014.5 |
| 20260904185451 | 27 | 173 | 1.6 | 6.4 | 0.00 | 0.00 | 0.00 | 52 | 1014.4 |
| 20260904184952 | 27 | 226 | 6.4 | 9.7 | 0.00 | 0.00 | 0.00 | 51 | 1014.4 |
| 20260904184452 | 27 | 186 | 3.2 | 6.4 | 0.00 | 0.00 | 0.00 | 51 | 1014.3 |
| 20260904183951 | 28 | 186 | 3.2 | 6.4 | 0.00 | 0.00 | 0.00 | 50 | 1014.3 |
| 20260904183451 | 28 | 185 | 4.8 | 8.0 | 0.00 | 0.00 | 0.00 | 49 | 1014.2 |
| 20260904182952 | 28 | 170 | 4.8 | 9.7 | 0.00 | 0.00 | 0.00 | 48 | 1014.2 |
| 20260904182452 | 28 | 186 | 1.6 | 6.4 | 0.00 | 0.00 | 0.00 | 48 | 1014.2 |
| 20260904181952 | 28 | 207 | 4.8 | 9.7 | 0.00 | 0.00 | 0.00 | 47 | 1014.1 |
| 20260904181452 | 29 | 223 | 3.2 | 8.0 | 0.00 | 0.00 | 0.00 | 47 | 1014.1 |
| 20260904180952 | 29 | 227 | 3.2 | 8.0 | 0.00 | 0.00 | 0.00 | 46 | 1014.1 |
| 20260904180452 | 29 | 175 | 3.2 | 8.0 | 0.00 | 0.00 | 0.00 | 46 | 1014.0 |
| 20260904175951 | 30 | 188 | 3.2 | 8.0 | 0.00 | 0.00 | 0.00 | 46 | 1014.0 |
| 20260904175453 | 30 | 211 | 3.2 | 8.0 | 0.00 | 0.00 | 0.00 | 45 | 1013.9 |
| 20260904174951 | 30 | 155 | 3.2 | 6.4 | 0.00 | 0.00 | 0.00 | 45 | 1013.9 |
| 20260904174452 | 30 | 197 | 8.0 | 11.3 | 0.00 | 0.00 | 0.00 | 44 | 1013.8 |
| 20260904173951 | 30 | 243 | 3.2 | 9.7 | 0.00 | 0.00 | 0.00 | 44 | 1013.9 |
| 20260904173451 | 30 | 196 | 4.8 | 11.3 | 0.00 | 0.00 | 0.00 | 43 | 1013.8 |
| 20260904172951 | 30 | 232 | 9.7 | 14.5 | 0.00 | 0.00 | 0.00 | 43 | 1013.8 |
| 20260904172452 | 30 | 261 | 8.0 | 20.9 | 0.00 | 0.00 | 0.00 | 43 | 1013.8 |
| 20260904171951 | 31 | 261 | 4.8 | 19.3 | 0.00 | 0.00 | 0.00 | 42 | 1013.9 |
| 20260904171452 | 31 | 249 | 4.8 | 12.9 | 0.00 | 0.00 | 0.00 | 42 | 1013.9 |
| 20260904170951 | 31 | 219 | 8.0 | 14.5 | 0.00 | 0.00 | 0.00 | 41 | 1013.9 |
| 20260904170451 | 31 | 233 | 12.9 | 17.7 | 0.00 | 0.00 | 0.00 | 41 | 1013.9 |
| 20260904165953 | 31 | 253 | 8.0 | 19.3 | 0.00 | 0.00 | 0.00 | 41 | 1013.9 |
| 20260904165451 | 31 | 5 | 9.7 | 19.3 | 0.00 | 0.00 | 0.00 | 40 | 1013.8 |
| 20260904164952 | 31 | 306 | 12.9 | 19.3 | 0.00 | 0.00 | 0.00 | 41 | 1013.8 |
| 20260904164452 | 31 | 257 | 8.0 | 17.7 | 0.00 | 0.00 | 0.00 | 40 | 1013.8 |
| 20260904163953 | 31 | 248 | 11.3 | 17.7 | 0.00 | 0.00 | 0.00 | 40 | 1013.8 |
| 20260904163452 | 31 | 250 | 8.0 | 17.7 | 0.00 | 0.00 | 0.00 | 39 | 1013.8 |
| 20260904162952 | 32 | 267 | 6.4 | 22.5 | 0.00 | 0.00 | 0.00 | 39 | 1013.9 |
| 20260904162452 | 32 | 256 | 6.4 | 24.1 | 0.00 | 0.00 | 0.00 | 39 | 1013.9 |
| 20260904161952 | 32 | 288 | 8.0 | 17.7 | 0.00 | 0.00 | 0.00 | 38 | 1013.9 |
| 20260904161452 | 33 | 284 | 9.7 | 19.3 | 0.00 | 0.00 | 0.00 | 38 | 1013.9 |
| 20260904160951 | 33 | 244 | 8.0 | 22.5 | 0.00 | 0.00 | 0.00 | 37 | 1013.8 |
| 20260904160452 | 33 | 258 | 16.1 | 29.0 | 0.00 | 0.00 | 0.00 | 38 | 1013.9 |
| 20260904155951 | 33 | 262 | 12.9 | 22.5 | 0.00 | 0.00 | 0.00 | 36 | 1013.7 |
| 20260904155452 | 33 | 300 | 16.1 | 30.6 | 0.00 | 0.00 | 0.00 | 37 | 1013.8 |
| 20260904154952 | 33 | 219 | 14.5 | 25.7 | 0.00 | 0.00 | 0.00 | 36 | 1013.8 |
| 20260904154452 | 33 | 237 | 11.3 | 20.9 | 0.00 | 0.00 | 0.00 | 36 | 1013.8 |
| 20260904153952 | 33 | 254 | 14.5 | 25.7 | 0.00 | 0.00 | 0.00 | 35 | 1013.8 |
| 20260904153453 | 33 | 253 | 11.3 | 20.9 | 0.00 | 0.00 | 0.00 | 35 | 1013.8 |
| 20260904152953 | 33 | 280 | 9.7 | 19.3 | 0.00 | 0.00 | 0.00 | 35 | 1013.8 |
| 20260904152452 | 33 | 308 | 8.0 | 19.3 | 0.00 | 0.00 | 0.00 | 37 | 1013.8 |
| 20260904151952 | 33 | 271 | 9.7 | 20.9 | 0.00 | 0.00 | 0.00 | 37 | 1013.8 |
| 20260904151453 | 34 | 238 | 8.0 | 20.9 | 0.00 | 0.00 | 0.00 | 36 | 1013.9 |
| 20260904150952 | 34 | 259 | 11.3 | 19.3 | 0.00 | 0.00 | 0.00 | 35 | 1013.8 |
| 20260904150452 | 34 | 311 | 12.9 | 22.5 | 0.00 | 0.00 | 0.00 | 34 | 1013.7 |
| 20260904145951 | 34 | 225 | 9.7 | 25.7 | 0.00 | 0.00 | 0.00 | 34 | 1013.8 |
| 20260904145452 | 34 | 263 | 8.0 | 19.3 | 0.00 | 0.00 | 0.00 | 34 | 1013.8 |
| 20260904144952 | 34 | 227 | 16.1 | 22.5 | 0.00 | 0.00 | 0.00 | 36 | 1013.9 |
| 20260904144451 | 34 | 51 | 8.0 | 17.7 | 0.00 | 0.00 | 0.00 | 34 | 1013.9 |
| 20260904143951 | 34 | 282 | 6.4 | 17.7 | 0.00 | 0.00 | 0.00 | 35 | 1013.9 |
| 20260904143451 | 34 | 256 | 9.7 | 20.9 | 0.00 | 0.00 | 0.00 | 34 | 1013.9 |
| 20260904142951 | 34 | 242 | 8.0 | 17.7 | 0.00 | 0.00 | 0.00 | 35 | 1013.9 |
| 20260904142452 | 34 | 244 | 11.3 | 19.3 | 0.00 | 0.00 | 0.00 | 35 | 1013.9 |
| 20260904141952 | 34 | 235 | 14.5 | 19.3 | 0.00 | 0.00 | 0.00 | 35 | 1014.0 |
| 20260904141453 | 33 | 221 | 11.3 | 19.3 | 0.00 | 0.00 | 0.00 | 37 | 1014.0 |
| 20260904140951 | 33 | 220 | 8.0 | 14.5 | 0.00 | 0.00 | 0.00 | 38 | 1014.0 |
| 20260904140453 | 33 | 213 | 8.0 | 14.5 | 0.00 | 0.00 | 0.00 | 37 | 1014.2 |
| 20260904135953 | 33 | 178 | 9.7 | 17.7 | 0.00 | 0.00 | 0.00 | 36 | 1014.3 |
| 20260904135453 | 33 | 262 | 4.8 | 14.5 | 0.00 | 0.00 | 0.00 | 39 | 1014.3 |
| 20260904134953 | 33 | 180 | 9.7 | 16.1 | 0.00 | 0.00 | 0.00 | 36 | 1014.4 |
| 20260904134452 | 33 | 305 | 11.3 | 17.7 | 0.00 | 0.00 | 0.00 | 36 | 1014.5 |
| 20260904133952 | 33 | 250 | 6.4 | 14.5 | 0.00 | 0.00 | 0.00 | 38 | 1014.5 |
| 20260904133452 | 33 | 198 | 11.3 | 17.7 | 0.00 | 0.00 | 0.00 | 37 | 1014.7 |
| 20260904132951 | 33 | 195 | 11.3 | 22.5 | 0.00 | 0.00 | 0.00 | 37 | 1014.8 |
| 20260904132452 | 33 | 164 | 8.0 | 19.3 | 0.00 | 0.00 | 0.00 | 37 | 1014.8 |
| 20260904131952 | 33 | 242 | 11.3 | 19.3 | 0.00 | 0.00 | 0.00 | 37 | 1014.8 |
| 20260904131451 | 33 | 182 | 11.3 | 19.3 | 0.00 | 0.00 | 0.00 | 37 | 1014.9 |
| 20260904130951 | 33 | 217 | 11.3 | 20.9 | 0.00 | 0.00 | 0.00 | 37 | 1015.0 |
| 20260904130451 | 32 | 238 | 14.5 | 22.5 | 0.00 | 0.00 | 0.00 | 38 | 1015.1 |
| 20260904125951 | 32 | 180 | 9.7 | 14.5 | 0.00 | 0.00 | 0.00 | 38 | 1015.1 |
| 20260904125451 | 32 | 188 | 11.3 | 19.3 | 0.00 | 0.00 | 0.00 | 38 | 1015.2 |
| 20260904124951 | 32 | 186 | 3.2 | 19.3 | 0.00 | 0.00 | 0.00 | 41 | 1015.3 |
| 20260904124453 | 32 | 240 | 9.7 | 20.9 | 0.00 | 0.00 | 0.00 | 39 | 1015.3 |
| 20260904123952 | 32 | 213 | 17.7 | 27.4 | 0.00 | 0.00 | 0.00 | 39 | 1015.6 |
| 20260904123453 | 32 | 213 | 9.7 | 22.5 | 0.00 | 0.00 | 0.00 | 41 | 1015.5 |
| 20260904122952 | 32 | 167 | 8.0 | 20.9 | 0.00 | 0.00 | 0.00 | 40 | 1015.6 |
| 20260904122453 | 32 | 230 | 9.7 | 22.5 | 0.00 | 0.00 | 0.00 | 40 | 1015.7 |
| 20260904121953 | 32 | 219 | 11.3 | 19.3 | 0.00 | 0.00 | 0.00 | 39 | 1015.7 |
| 20260904121452 | 32 | 284 | 9.7 | 19.3 | 0.00 | 0.00 | 0.00 | 41 | 1015.8 |
| 20260904120953 | 32 | 234 | 8.0 | 17.7 | 0.00 | 0.00 | 0.00 | 39 | 1016.0 |
| 20260904120451 | 31 | 198 | 8.0 | 16.1 | 0.00 | 0.00 | 0.00 | 40 | 1016.1 |
| 20260904115951 | 31 | 261 | 9.7 | 17.7 | 0.00 | 0.00 | 0.00 | 42 | 1016.2 |
| 20260904115452 | 31 | 212 | 6.4 | 16.1 | 0.00 | 0.00 | 0.00 | 41 | 1016.1 |
| 20260904114951 | 31 | 115 | 6.4 | 17.7 | 0.00 | 0.00 | 0.00 | 41 | 1016.3 |
| 20260904114452 | 31 | 178 | 8.0 | 17.7 | 0.00 | 0.00 | 0.00 | 41 | 1016.4 |
| 20260904113951 | 31 | 267 | 9.7 | 20.9 | 0.00 | 0.00 | 0.00 | 42 | 1016.4 |
| 20260904113452 | 31 | 254 | 12.9 | 22.5 | 0.00 | 0.00 | 0.00 | 41 | 1016.4 |
| 20260904112951 | 31 | 337 | 9.7 | 19.3 | 0.00 | 0.00 | 0.00 | 42 | 1016.5 |
| 20260904112451 | 31 | 195 | 8.0 | 20.9 | 0.00 | 0.00 | 0.00 | 41 | 1016.5 |
| 20260904111951 | 31 | 201 | 8.0 | 11.3 | 0.00 | 0.00 | 0.00 | 42 | 1016.6 |
| 20260904111451 | 31 | 182 | 6.4 | 19.3 | 0.00 | 0.00 | 0.00 | 44 | 1016.8 |
| 20260904110952 | 30 | 255 | 8.0 | 20.9 | 0.00 | 0.00 | 0.00 | 43 | 1016.8 |
| 20260904110451 | 30 | 164 | 4.8 | 14.5 | 0.00 | 0.00 | 0.00 | 43 | 1016.9 |
| 20260904105952 | 30 | 177 | 8.0 | 12.9 | 0.00 | 0.00 | 0.00 | 42 | 1017.0 |
| 20260904105451 | 30 | 253 | 6.4 | 14.5 | 0.00 | 0.00 | 0.00 | 43 | 1016.9 |
| 20260904104953 | 30 | 158 | 6.4 | 14.5 | 0.00 | 0.00 | 0.00 | 45 | 1017.0 |
| 20260904104452 | 29 | 142 | 9.7 | 16.1 | 0.00 | 0.00 | 0.00 | 43 | 1017.1 |
| 20260904103952 | 29 | 177 | 9.7 | 16.1 | 0.00 | 0.00 | 0.00 | 42 | 1017.2 |
| 20260904103453 | 29 | 237 | 6.4 | 14.5 | 0.00 | 0.00 | 0.00 | 45 | 1017.3 |
| 20260904102952 | 28 | 155 | 9.7 | 17.7 | 0.00 | 0.00 | 0.00 | 43 | 1017.4 |
| 20260904102452 | 29 | 202 | 9.7 | 14.5 | 0.00 | 0.00 | 0.00 | 44 | 1017.4 |
| 20260904101952 | 28 | 196 | 9.7 | 19.3 | 0.00 | 0.00 | 0.00 | 43 | 1017.5 |
| 20260904101451 | 28 | 223 | 11.3 | 19.3 | 0.00 | 0.00 | 0.00 | 44 | 1017.6 |
| 20260904100951 | 28 | 165 | 11.3 | 24.1 | 0.00 | 0.00 | 0.00 | 43 | 1017.8 |
| 20260904100451 | 28 | 156 | 4.8 | 16.1 | 0.00 | 0.00 | 0.00 | 46 | 1017.8 |
| 20260904095951 | 28 | 111 | 8.0 | 11.3 | 0.00 | 0.00 | 0.00 | 45 | 1017.8 |
| 20260904095451 | 28 | 223 | 6.4 | 12.9 | 0.00 | 0.00 | 0.00 | 46 | 1017.9 |
| 20260904094951 | 28 | 175 | 9.7 | 17.7 | 0.00 | 0.00 | 0.00 | 45 | 1018.0 |
| 20260904094451 | 28 | 182 | 6.4 | 16.1 | 0.00 | 0.00 | 0.00 | 47 | 1018.1 |
| 20260904093952 | 27 | 257 | 12.9 | 22.5 | 0.00 | 0.00 | 0.00 | 48 | 1018.1 |
| 20260904093451 | 27 | 179 | 6.4 | 17.7 | 0.00 | 0.00 | 0.00 | 47 | 1018.2 |
| 20260904092952 | 27 | 273 | 12.9 | 19.3 | 0.00 | 0.00 | 0.00 | 48 | 1018.2 |
| 20260904092451 | 27 | 220 | 8.0 | 17.7 | 0.00 | 0.00 | 0.00 | 50 | 1018.2 |
| 20260904091953 | 27 | 127 | 11.3 | 17.7 | 0.00 | 0.00 | 0.00 | 48 | 1018.3 |
| 20260904091452 | 26 | 157 | 1.6 | 17.7 | 0.00 | 0.00 | 0.00 | 49 | 1018.3 |
| 20260904090952 | 26 | 162 | 11.3 | 14.5 | 0.00 | 0.00 | 0.00 | 49 | 1018.3 |
| 20260904090451 | 26 | 169 | 9.7 | 17.7 | 0.00 | 0.00 | 0.00 | 48 | 1018.2 |
| 20260904085951 | 26 | 186 | 4.8 | 12.9 | 0.00 | 0.00 | 0.00 | 51 | 1018.3 |
| 20260904085452 | 26 | 185 | 9.7 | 14.5 | 0.00 | 0.00 | 0.00 | 50 | 1018.4 |
| 20260904084951 | 26 | 155 | 3.2 | 11.3 | 0.00 | 0.00 | 0.00 | 52 | 1018.3 |
| 20260904084451 | 26 | 211 | 4.8 | 14.5 | 0.00 | 0.00 | 0.00 | 51 | 1018.4 |
| 20260904083952 | 25 | 189 | 8.0 | 12.9 | 0.00 | 0.00 | 0.00 | 51 | 1018.6 |
| 20260904083451 | 25 | 235 | 9.7 | 19.3 | 0.00 | 0.00 | 0.00 | 51 | 1018.6 |
| 20260904082952 | 25 | 205 | 8.0 | 14.5 | 0.00 | 0.00 | 0.00 | 50 | 1018.6 |
| 20260904082452 | 25 | 198 | 4.8 | 12.9 | 0.00 | 0.00 | 0.00 | 55 | 1018.6 |
| 20260904081952 | 25 | 225 | 4.8 | 16.1 | 0.00 | 0.00 | 0.00 | 53 | 1018.6 |
| 20260904081452 | 25 | 246 | 4.8 | 14.5 | 0.00 | 0.00 | 0.00 | 53 | 1018.6 |
| 20260904080952 | 24 | 191 | 4.8 | 12.9 | 0.00 | 0.00 | 0.00 | 54 | 1018.6 |
| 20260904080451 | 24 | 226 | 8.0 | 14.5 | 0.00 | 0.00 | 0.00 | 55 | 1018.7 |
| 20260904075953 | 24 | 212 | 4.8 | 9.7 | 0.00 | 0.00 | 0.00 | 55 | 1018.7 |
| 20260904075452 | 23 | 170 | 8.0 | 12.9 | 0.00 | 0.00 | 0.00 | 54 | 1018.6 |
| 20260904074952 | 23 | 167 | 9.7 | 16.1 | 0.00 | 0.00 | 0.00 | 56 | 1018.7 |
| 20260904074453 | 23 | 270 | 6.4 | 14.5 | 0.00 | 0.00 | 0.00 | 55 | 1018.6 |
| 20260904073953 | 23 | 201 | 11.3 | 16.1 | 0.00 | 0.00 | 0.00 | 56 | 1018.7 |
| 20260904073453 | 22 | 207 | 8.0 | 14.5 | 0.00 | 0.00 | 0.00 | 58 | 1018.7 |
| 20260904072952 | 22 | 55 | 4.8 | 11.3 | 0.00 | 0.00 | 0.00 | 59 | 1018.7 |
| 20260904072452 | 22 | 253 | 6.4 | 14.5 | 0.00 | 0.00 | 0.00 | 59 | 1018.8 |
| 20260904071952 | 21 | 192 | 3.2 | 12.9 | 0.00 | 0.00 | 0.00 | 63 | 1018.8 |
| 20260904071451 | 21 | 207 | 3.2 | 11.3 | 0.00 | 0.00 | 0.00 | 66 | 1019.0 |
| 20260904070951 | 20 | 222 | 6.4 | 12.9 | 0.00 | 0.00 | 0.00 | 67 | 1019.1 |
| 20260904070451 | 20 | 274 | 1.6 | 8.0 | 0.00 | 0.00 | 0.00 | 70 | 1019.1 |
| 20260904065951 | 19 | 227 | 6.4 | 12.9 | 0.00 | 0.00 | 0.00 | 73 | 1019.1 |
| 20260904065452 | 18 | 213 | 4.8 | 8.0 | 0.00 | 0.00 | 0.00 | 77 | 1019.1 |
| 20260904064951 | 17 | 228 | 3.2 | 9.7 | 0.00 | 0.00 | 0.00 | 81 | 1019.2 |
| 20260904064451 | 17 | 224 | 4.8 | 6.4 | 0.00 | 0.00 | 0.00 | 84 | 1019.2 |
| 20260904063952 | 16 | 308 | 3.2 | 4.8 | 0.00 | 0.00 | 0.00 | 85 | 1019.2 |
| 20260904063451 | 16 | 281 | 1.6 | 4.8 | 0.00 | 0.00 | 0.00 | 86 | 1019.2 |
| 20260904062952 | 16 | 305 | 3.2 | 3.2 | 0.00 | 0.00 | 0.00 | 86 | 1019.2 |
| 20260904062451 | 16 | 337 | 1.6 | 3.2 | 0.00 | 0.00 | 0.00 | 86 | 1019.2 |
| 20260904061952 | 16 | 131 | 0.0 | 3.2 | 0.00 | 0.00 | 0.00 | 86 | 1019.1 |
| 20260904061453 | 15 | 360 | 0.0 | 3.2 | 0.00 | 0.00 | 0.00 | 86 | 1019.1 |
| 20260904060952 | 15 | 355 | 0.0 | 1.6 | 0.00 | 0.00 | 0.00 | 85 | 1019.1 |
| 20260904060452 | 15 | 355 | 0.0 | 1.6 | 0.00 | 0.00 | 0.00 | 85 | 1019.2 |
| 20260904055953 | 15 | 355 | 0.0 | 3.2 | 0.00 | 0.00 | 0.00 | 85 | 1019.2 |
| 20260904055453 | 15 | 349 | 0.0 | 1.6 | 0.00 | 0.00 | 0.00 | 85 | 1019.2 |
| 20260904054953 | 15 | 349 | 0.0 | 1.6 | 0.00 | 0.00 | 0.00 | 85 | 1019.3 |
| 20260904054452 | 15 | 333 | 0.0 | 0.0 | 0.00 | 0.00 | 0.00 | 84 | 1019.4 |
| 20260904053952 | 15 | 333 | 0.0 | 0.0 | 0.00 | 0.00 | 0.00 | 84 | 1019.4 |
| 20260904053452 | 15 | 333 | 0.0 | 1.6 | 0.00 | 0.00 | 0.00 | 84 | 1019.4 |
| 20260904052951 | 15 | 318 | 0.0 | 1.6 | 0.00 | 0.00 | 0.00 | 84 | 1019.5 |
| 20260904052453 | 15 | 319 | 0.0 | 1.6 | 0.00 | 0.00 | 0.00 | 83 | 1019.5 |
| 20260904051952 | 15 | 319 | 0.0 | 1.6 | 0.00 | 0.00 | 0.00 | 84 | 1019.4 |
| 20260904051452 | 15 | 315 | 0.0 | 1.6 | 0.00 | 0.00 | 0.00 | 83 | 1019.4 |
| 20260904050952 | 15 | 302 | 1.6 | 1.6 | 0.00 | 0.00 | 0.00 | 83 | 1019.4 |
| 20260904050451 | 15 | 185 | 0.0 | 1.6 | 0.00 | 0.00 | 0.00 | 83 | 1019.4 |
| 20260904045951 | 15 | 171 | 0.0 | 0.0 | 0.00 | 0.00 | 0.00 | 83 | 1019.5 |
| 20260904045452 | 15 | 171 | 0.0 | 0.0 | 0.00 | 0.00 | 0.00 | 83 | 1019.6 |
| 20260904044952 | 15 | 170 | 1.6 | 3.2 | 0.00 | 0.00 | 0.00 | 83 | 1019.5 |
| 20260904044451 | 16 | 261 | 0.0 | 0.0 | 0.00 | 0.00 | 0.00 | 83 | 1019.6 |
| 20260904043951 | 16 | 259 | 0.0 | 3.2 | 0.00 | 0.00 | 0.00 | 83 | 1019.6 |
| 20260904043451 | 16 | 298 | 0.0 | 0.0 | 0.00 | 0.00 | 0.00 | 83 | 1019.6 |
| 20260904042951 | 16 | 297 | 0.0 | 0.0 | 0.00 | 0.00 | 0.00 | 83 | 1019.6 |
| 20260904042451 | 16 | 297 | 0.0 | 0.0 | 0.00 | 0.00 | 0.00 | 83 | 1019.6 |
| 20260904041951 | 16 | 297 | 0.0 | 1.6 | 0.00 | 0.00 | 0.00 | 83 | 1019.6 |
| 20260904041452 | 16 | 298 | 0.0 | 3.2 | 0.00 | 0.00 | 0.00 | 83 | 1019.6 |
| 20260904040952 | 16 | 297 | 1.6 | 3.2 | 0.00 | 0.00 | 0.00 | 83 | 1019.5 |
| 20260904040452 | 16 | 306 | 0.0 | 3.2 | 0.00 | 0.00 | 0.00 | 83 | 1019.5 |
| 20260904035952 | 16 | 283 | 1.6 | 3.2 | 0.00 | 0.00 | 0.00 | 83 | 1019.6 |
| 20260904035452 | 16 | 254 | 1.6 | 3.2 | 0.00 | 0.00 | 0.00 | 83 | 1019.7 |
| 20260904034954 | 16 | 306 | 0.0 | 0.0 | 0.00 | 0.00 | 0.00 | 83 | 1019.6 |
| 20260904034452 | 16 | 306 | 0.0 | 1.6 | 0.00 | 0.00 | 0.00 | 83 | 1019.7 |
| 20260904033952 | 16 | 306 | 0.0 | 1.6 | 0.00 | 0.00 | 0.00 | 83 | 1019.7 |
| 20260904033451 | 16 | 297 | 0.0 | 1.6 | 0.00 | 0.00 | 0.00 | 83 | 1019.7 |
| 20260904032952 | 16 | 313 | 0.0 | 0.0 | 0.00 | 0.00 | 0.00 | 83 | 1019.8 |
| 20260904032453 | 16 | 313 | 0.0 | 3.2 | 0.00 | 0.00 | 0.00 | 83 | 1019.8 |
| 20260904031952 | 16 | 310 | 0.0 | 1.6 | 0.00 | 0.00 | 0.00 | 83 | 1019.9 |
| 20260904031452 | 16 | 309 | 0.0 | 1.6 | 0.00 | 0.00 | 0.00 | 83 | 1019.9 |
| 20260904030729 | 16 | 323 | 0.0 | 1.6 | 0.00 | 0.00 | 0.00 | 83 | 1020.0 |
| 20260904030229 | 16 | 306 | 0.0 | 1.6 | 0.00 | 0.00 | 0.00 | 83 | 1020.1 |
| 20260904025728 | 16 | 306 | 0.0 | 0.0 | 0.00 | 0.00 | 0.00 | 83 | 1020.1 |
| 20260904025229 | 16 | 306 | 0.0 | 3.2 | 0.00 | 0.00 | 0.00 | 83 | 1020.1 |
| 20260904024729 | 16 | 56 | 0.0 | 1.6 | 0.00 | 0.00 | 0.00 | 82 | 1020.2 |
| 20260904024229 | 16 | 56 | 0.0 | 1.6 | 0.00 | 0.00 | 0.00 | 82 | 1020.3 |
| 20260904023729 | 16 | 55 | 0.0 | 3.2 | 0.00 | 0.00 | 0.00 | 82 | 1020.3 |
| 20260904023229 | 16 | 48 | 0.0 | 1.6 | 0.00 | 0.00 | 0.00 | 82 | 1020.4 |
| 20260904022729 | 16 | 98 | 0.0 | 1.6 | 0.00 | 0.00 | 0.00 | 82 | 1020.4 |
| 20260904022228 | 16 | 194 | 0.0 | 0.0 | 0.00 | 0.00 | 0.00 | 81 | 1020.5 |
| 20260904021729 | 16 | 196 | 0.0 | 0.0 | 0.00 | 0.00 | 0.00 | 81 | 1020.5 |
| 20260904021228 | 16 | 196 | 0.0 | 0.0 | 0.00 | 0.00 | 0.00 | 81 | 1020.6 |
| 20260904020729 | 16 | 196 | 0.0 | 1.6 | 0.00 | 0.00 | 0.00 | 81 | 1020.5 |
| 20260904020228 | 16 | 213 | 0.0 | 1.6 | 0.00 | 0.00 | 0.00 | 80 | 1020.5 |
| 20260904015729 | 16 | 213 | 0.0 | 0.0 | 0.00 | 0.00 | 0.00 | 80 | 1020.5 |
| 20260904015228 | 16 | 213 | 0.0 | 0.0 | 0.00 | 0.00 | 0.00 | 80 | 1020.5 |
| 20260904014728 | 16 | 213 | 0.0 | 1.6 | 0.00 | 0.00 | 0.00 | 80 | 1020.5 |
| 20260904014230 | 16 | 213 | 0.0 | 0.0 | 0.00 | 0.00 | 0.00 | 80 | 1020.4 |
| 20260904013730 | 16 | 213 | 0.0 | 0.0 | 0.00 | 0.00 | 0.00 | 79 | 1020.5 |
| 20260904013228 | 16 | 213 | 0.0 | 1.6 | 0.00 | 0.00 | 0.00 | 79 | 1020.5 |
| 20260904012729 | 17 | 213 | 1.6 | 3.2 | 0.00 | 0.00 | 0.00 | 79 | 1020.5 |
| 20260904012230 | 17 | 134 | 0.0 | 0.0 | 0.00 | 0.00 | 0.00 | 79 | 1020.4 |
| 20260904011729 | 17 | 134 | 0.0 | 0.0 | 0.00 | 0.00 | 0.00 | 78 | 1020.4 |
| 20260904011229 | 17 | 134 | 0.0 | 0.0 | 0.00 | 0.00 | 0.00 | 78 | 1020.4 |
| 20260904010728 | 17 | 134 | 0.0 | 0.0 | 0.00 | 0.00 | 0.00 | 78 | 1020.6 |
| 20260904010229 | 17 | 134 | 0.0 | 0.0 | 0.00 | 0.00 | 0.00 | 78 | 1020.6 |
| 20260904005728 | 17 | 134 | 0.0 | 1.6 | 0.00 | 0.00 | 0.00 | 77 | 1020.6 |
| 20260904005229 | 17 | 133 | 0.0 | 1.6 | 0.00 | 0.00 | 0.00 | 77 | 1020.7 |